This is the latest recevied weather packets stored in our database for station/object KF6RAL-6. If no packets are shown the sender has not sent any weather packets the latest 10 day(s).
| Time | Temp. | Humidity | Pressure | Rain* | Wind** | Luminosity | Snow |
|---|---|---|---|---|---|---|---|
| 1777968093 | 15° C | 60% | 1006.1 hPa | 0 mm | - | - | - |
| 1777967672 | 15° C | 60% | 1006 hPa | 0 mm | - | - | - |
| 1777967251 | 15° C | 59% | 1006 hPa | 0 mm | - | - | - |
| 1777966830 | 15° C | 59% | 1006 hPa | 0 mm | - | - | - |
| 1777966409 | 15° C | 58% | 1006.1 hPa | 0 mm | - | - | - |
| 1777965988 | 15° C | 60% | 1006.1 hPa | 0 mm | - | - | - |
| 1777965567 | 15.56° C | 59% | 1006.6 hPa | 0 mm | - | - | - |
| 1777965146 | 15.56° C | 58% | 1006.7 hPa | 0 mm | - | - | - |
| 1777964725 | 15.56° C | 58% | 1006.5 hPa | 0 mm | - | - | - |
| 1777964305 | 15.56° C | 57% | 1006.5 hPa | 0 mm | - | - | - |
| 1777963883 | 16.11° C | 54% | 1006.4 hPa | 0 mm | - | - | - |
| 1777963462 | 16.11° C | 54% | 1006 hPa | 0 mm | - | - | - |
| 1777963041 | 16.11° C | 53% | 1006 hPa | 0 mm | - | - | - |
| 1777962620 | 16.11° C | 54% | 1005.9 hPa | 0 mm | - | - | - |
| 1777962199 | 16.11° C | 52% | 1005.8 hPa | 0 mm | - | - | - |
| 1777961778 | 16.11° C | 51% | 1005.8 hPa | 0 mm | - | - | - |
| 1777961357 | 16.67° C | 49% | 1005.8 hPa | 0 mm | - | - | - |
| 1777960936 | 16.11° C | 52% | 1005.7 hPa | 0 mm | - | - | - |
| 1777960515 | 16.11° C | 53% | 1005.7 hPa | 0 mm | - | - | - |
| 1777960094 | 16.11° C | 51% | 1005.7 hPa | 0 mm | - | - | - |
| 1777959673 | 16.11° C | 51% | 1005.1 hPa | 0 mm | - | - | - |
| 1777959252 | 16.11° C | 51% | 1004.9 hPa | 0 mm | - | - | - |
| 1777958831 | 16.11° C | 51% | 1004.8 hPa | 0 mm | - | - | - |
| 1777958410 | 16.11° C | 51% | 1004.8 hPa | 0 mm | - | - | - |
| 1777957989 | 16.67° C | 52% | 1005.3 hPa | 0 mm | - | - | - |
* Rain latest hour (hover to see other rain measurements)
** Current wind speed in m/s (hover to see current wind gust speed)